This demonstration page uses our WeatherBlox Daily Observations layout. Learn more.

41.55636, -103.73856

Hourly Observations for December 28, 2016

Temp ( °F °C ) Dew Point ( °F °C ) Humidity (%) Winds ( mph kmh ) Pressure ( in mb ) Visibility ( mi km ) Precip ( " mm )
12:53 am 00:53 Clear 45 7.2 23 -5 42 42 W 29 46 29.87 1012 10 16.0934 0 0
1:53 am 01:53 Mostly Cloudy 43 6.1 26 -3.3 51 51 W 28 44 29.89 1012 10 16.0934 0 0
2:53 am 02:53 Mostly Clear 41 5 25 -3.9 53 53 W 18 30 29.91 1013 10 16.0934 0 0
3:53 am 03:53 Clear 40 4.4 24 -4.4 53 53 WNW 16 26 29.93 1013 10 16.0934 0 0
4:53 am 04:53 Clear 39 3.9 22 -5.6 50 50 WNW 17 28 29.94 1014 10 16.0934 0 0
5:53 am 05:53 Clear 33 0.6 20 -6.7 58 58 NNW 12 19 29.97 1015 10 16.0934 0 0
6:53 am 06:53 Clear 30 -1.1 19 -7.2 64 64 W 8 13 30.04 1017 10 16.0934 0 0
7:53 am 07:53 Sunny 30 -1.1 19 -7.2 64 64 W 7 11 30.04 1017 10 16.0934 0 0
8:53 am 08:53 Sunny 32 0 20 -6.7 61 61 WNW 9 15 30.06 1018 10 16.0934 0 0
9:53 am 09:53 Sunny 38 3.3 19 -7.2 46 46 W 15 24 30.06 1018 10 16.0934 0 0
10:53 am 10:53 Sunny 41 5 18 -7.8 39 39 W 17 28 30.06 1018 10 16.0934 0 0
11:53 am 11:53 Partly Cloudy 42 5.6 16 -8.9 35 35 W 18 30 30.04 1017 10 16.0934 0 0
12:53 pm 12:53 Mostly Sunny 42 5.6 16 -8.9 35 35 NW 26 43 30.03 1017 10 16.0934 0 0
1:53 pm 13:53 Partly Cloudy 37 2.8 15 -9.4 41 41 NW 16 26 30.09 1019 10 16.0934 0 0
2:53 pm 14:53 Mostly Cloudy 37 2.8 14 -10 39 39 NW 17 28 30.13 1020 10 16.0934 0 0
3:53 pm 15:53 Sunny 35 1.7 12 -11.1 38 38 NW 14 22 30.17 1022 10 16.0934 0 0
4:53 pm 16:53 Partly Cloudy 33 0.6 10 -12.2 38 38 WNW 15 24 30.22 1023 10 16.0934 0 0
5:53 pm 17:53 Clear 30 -1.1 10 -12.2 43 43 NW 15 24 30.28 1025 10 16.0934 0 0
6:53 pm 18:53 Clear 24 -4.4 10 -12.2 55 55 NW 8 13 30.35 1028 10 16.0934 0 0
7:53 pm 19:53 Clear 20 -6.7 10 -12.2 65 65 WNW 8 13 30.39 1029 10 16.0934 0 0
8:53 pm 20:53 Clear 20 -6.7 9 -12.8 62 62 WNW 10 17 30.41 1030 10 16.0934 0 0
9:53 pm 21:53 Clear 19 -7.2 8 -13.3 62 62 NW 9 15 30.42 1030 10 16.0934 0 0
10:53 pm 22:53 Clear 19 -7.2 7 -13.9 59 59 NW 8 13 30.44 1031 10 16.0934 0 0
11:53 pm 23:53 Clear 16 -8.9 6 -14.4 65 65 WNW 7 11 30.46 1032 10 16.0934 0 0

Powered by AerisWeather